Location: B?evni�t?
(48.8368°N, 14.1555°E)
Time: 06:11:07
(UTC+00:00)

Daily predictions for brighter satellites

Satellite Brightness Start Highest point End
(mag) Time Altitude Azimuth Time Altitude Azimuth Time Altitude Azimuth
Cosmos 2263 Rocket 4.3 19:43:46 10° NW 19:48:10 23° WSW 19:52:33 10° SSW
MetOp-B 4.2 19:47:40 10° SSE 19:53:01 89° E 19:58:25 10° NNW
Cosmos 1110 Rocket 4.1 19:48:29 10° S 19:53:33 57° ESE 19:58:40 10° NNE
Cosmos 1908 3.2 19:52:13 10° N 19:56:06 73° E 19:59:56 10° SSE
In-Cosmos 22 4.2 19:51:17 10° SSW 19:56:34 86° W 20:01:55 10° N
Cosmos 1544 Rocket 3.9 19:53:00 10° N 19:57:24 54° ENE 20:01:44 10° SSE
Cosmos 1626 2.6 19:56:16 10° SSE 19:59:45 42° E 20:03:16 10° NNE
FALCON 9 DEB 3.1 19:58:15 10° WSW 20:01:42 87° NNW 20:05:08 10° ENE
Cosmos 1455 Rocket 3.2 19:57:21 10° N 20:01:50 86° W 20:06:18 10° S
Cosmos 2100 Rocket 4.1 19:56:47 10° N 20:03:12 84° E 20:09:31 10° S
ARIANE 5 R/B 2.9 20:01:27 10° SSE 20:05:49 60° ENE 20:10:18 10° N
BREEZE-M DEB (TANK) 2.7 20:05:16 10° SW 20:07:39 47° SSE 20:12:27 10° ENE
ATLAS 3B R/B 2.9 20:01:43 10° S 20:07:53 47° ESE 20:14:18 10° NE
Cosmos 1707 4.4 20:04:39 10° SW 20:08:15 36° WNW 20:11:54 10° N
Cosmos 2333 4.4 20:05:25 10° S 20:11:00 54° ESE 20:16:33 10° NE
Cosmos 1461 4.0 20:07:19 10° NW 20:11:13 37° WSW 20:14:55 10° S
ATLAS CENTAUR R/B 1.6 20:09:40 10° NW 20:14:00 85° SW 20:18:22 11° SE
Cosmos 2173 Rocket 4.2 20:09:46 10° N 20:16:11 84° W 20:22:34 10° S
Cosmos 405 3.3 20:13:26 10° N 20:16:49 49° ENE 20:19:49 12° SSE
Cosmos 2016 Rocket 4.0 20:14:01 10° N 20:20:08 72° E 20:26:16 10° SSE
SL-4 R/B 3.4 20:19:01 10° S 20:21:45 17° SE 20:24:23 10° E
Cosmos 2219 Rocket 2.5 20:18:22 10° S 20:23:47 48° ESE 20:29:14 10° NE
Meteor 2-5 Rocket 4.2 20:19:04 10° SSE 20:24:16 44° E 20:29:35 10° NNE
Cosmos 2333 Rocket 2.3 20:19:29 10° S 20:25:05 57° ESE 20:30:42 10° NE
FALCON 9 DEB 3.2 20:24:12 10° SW 20:27:11 43° SSE 20:30:12 10° ENE
ERS-1 Rocket 3.0 20:24:08 11° SSE 20:29:00 77° ENE 20:34:04 10° NNW
Geosat 4.0 20:24:37 12° SE 20:29:18 84° ENE 20:34:22 10° NNW
Cosmos 1025 Rocket 3.1 20:25:20 10° S 20:29:43 87° WNW 20:34:06 10° N
Cosmos 1844 4.2 20:25:09 10° NW 20:30:35 55° WSW 20:36:02 10° S
Lacrosse 5 rocket 1.1 20:27:14 10° WSW 20:30:55 81° NNW 20:34:31 10° NE
OPS 8737 4.3 20:27:21 10° SW 20:31:19 79° SE 20:34:25 10° NE
Cosmos 1536 Rocket 3.8 20:28:19 10° S 20:32:40 56° E 20:37:02 10° NNE
Spot 2 Rocket 3.7 20:28:48 10° S 20:33:50 69° WSW 20:38:56 10° NNW
Cosmos 2228 4.1 20:30:02 10° N 20:34:01 32° ENE 20:37:16 14° SE
Cosmos 1725 Rocket 4.0 20:28:21 10° N 20:34:34 79° E 20:40:27 12° SSE
USA 215 4.5 20:30:14 10° E 20:34:37 19° ESE 20:38:12 12° SSE
Cosmos 1331 Rocket 4.3 20:32:12 10° SSW 20:37:26 72° WNW 20:42:44 10° NNE
DNEPR-1 R/B 3.8 20:35:55 10° NW 20:40:05 60° SW 20:43:36 15° SSE
FALCON 9 DEB 2.7 20:39:42 10° WSW 20:42:48 75° SSE 20:45:54 10° ENE
CARTOSAT-1 4.1 20:40:21 10° S 20:44:34 54° W 20:48:50 10° NNW
CENTAUR R/B 4.5 20:39:03 10° W 20:44:58 36° NNW 20:51:54 10° NE
Cosmos 2237 Rocket 3.4 20:41:59 14° SE 20:45:08 23° ESE 20:49:26 10° NE
Terra 1.8 20:41:19 14° SSE 20:45:20 77° ENE 20:50:08 10° NNW
SL-14 R/B 3.3 20:41:54 10° S 20:45:56 88° W 20:49:59 10° N
Cosmos 2360 Rocket 3.1 20:42:42 10° SW 20:48:12 52° NW 20:53:44 10° NNE
FALCON 9 DEB 2.7 20:47:39 10° SW 20:50:45 70° SSE 20:53:53 10° ENE
Cosmos 1953 4.2 20:47:46 10° NNW 20:51:10 26° W 20:54:33 10° SW
Cosmos 2322 Rocket 4.1 20:47:31 10° WSW 20:52:38 33° NW 20:57:46 10° NNE
SL-16 R/B 4.5 20:48:02 10° WSW 20:52:51 28° NW 20:57:42 10° NNE
Cosmos 1455 3.8 20:49:45 10° NNE 20:52:51 23° ENE 20:55:06 14° ESE
SPOT 5 3.2 20:48:16 12° S 20:52:55 68° WSW 20:57:44 10° NNW
FALCON 9 DEB 2.7 20:50:14 10° WSW 20:53:21 84° SSE 20:56:28 10° ENE
Meteor 1-24 Rocket 3.7 20:51:24 12° S 20:56:14 64° E 21:01:43 10° NNE
H-2A R/B 3.6 20:52:53 10° NNE 20:56:54 53° E 20:59:53 17° S
Cosmos 1302 Rocket 4.0 20:53:28 10° SSW 20:58:44 88° WNW 21:04:01 10° NNE
Cosmos 1300 3.1 20:59:39 10° NNW 21:03:25 57° W 21:06:19 16° S
Resurs 01 Rocket 4.2 21:04:12 10° WSW 21:06:10 13° W 21:08:08 10° WNW
USA 267 4.0 21:04:05 10° E 21:10:22 52° NNE 21:16:41 10° WNW
Cosmos 1340 3.8 21:08:25 10° SW 21:11:59 41° WNW 21:15:36 10° N
Cosmos 2322 4.1 21:10:11 10° SW 21:15:47 65° WNW 21:21:27 10° NNE
Cosmos 2278 Rocket 2.2 21:11:12 10° NNW 21:16:55 80° ENE 21:20:55 20° SSE
COSMOS 2428 2.8 21:11:40 10° SSW 21:17:26 86° WNW 21:23:14 10° NNE
GENESIS II 4.4 21:20:01 19° S 21:22:32 48° ESE 21:26:19 10° NE
Cosmos 389 Rocket 2.3 21:19:08 10° NNW 21:22:34 86° W 21:24:17 28° S
NOSS 0 Rocket 4.0 21:17:59 13° S 21:23:28 58° ESE 21:29:35 10° NE
Cosmos 1726 Rocket 3.7 21:19:51 10° N 21:24:19 65° ENE 21:26:53 24° SSE
Cosmos 2058 Rocket 3.8 21:20:27 10° N 21:24:41 41° ENE 21:27:08 22° SE
Cosmos 1867 3.8 21:20:02 10° NW 21:25:26 59° WSW 21:28:54 22° SSE
Cosmos 968 Rocket 4.1 21:25:10 10° NNW 21:30:03 46° WSW 21:33:29 19° S
Cosmos 1486 Rocket 4.4 21:30:30 10° NNW 21:35:36 55° WSW 21:38:52 21° S
SJ 16-02 3.3 21:33:46 10° N 21:37:12 22° NE 21:40:30 10° ESE
Meteor 2-10 Rocket 3.8 21:34:19 10° NNW 21:39:17 58° W 21:42:36 20° S
Cosmos 1606 Rocket 3.7 21:35:29 10° NNW 21:39:57 71° W 21:42:32 24° S
Cosmos 1943 Rocket 3.5 21:37:32 10° NNW 21:42:27 32° NE 21:47:21 10° ESE
Cosmos 1992 Rocket 4.0 21:37:59 13° SSW 21:42:36 87° WNW 21:47:52 10° NNE
Spot 4 4.0 21:41:10 24° SE 21:43:56 62° ENE 21:48:40 10° N
Cosmos 1892 Rocket 3.6 21:43:59 27° S 21:46:22 71° E 21:50:49 10° NNE
Cosmos 1891 Rocket 4.5 21:42:54 10° N 21:49:06 81° E 21:53:08 24° SSE
Cosmos 1346 Rocket 3.4 21:47:04 17° SSW 21:49:57 53° WNW 21:53:56 10° N
Meteor 1-4 Rocket 3.8 21:48:05 10° N 21:51:10 29° ENE 21:52:29 22° ESE
Cosmos 1354 Rocket 4.0 21:46:35 10° NNW 21:51:57 79° WSW 21:55:00 26° SSE
ATLAS CENTAUR R/B 3.9 21:50:17 10° W 21:52:19 13° WSW 21:54:23 10° SW
Cosmos 1513 Rocket 4.4 21:46:25 10° N 21:52:33 82° E 21:56:24 24° SSE
Cosmos 1980 3.6 21:51:14 17° SSW 21:55:43 80° ESE 22:01:27 10° NNE
Cosmos 1441 Rocket 3.6 21:54:42 33° SSE 21:56:00 47° E 21:59:41 10° NNE
BREEZE-M DEB (TANK) 3.2 21:48:06 10° SW 21:57:19 49° SSE 22:00:27 10° E
ATLAS 3B R/B 3.6 21:52:12 10° WSW 21:58:35 50° NW 22:05:15 10° NE
ALOS 2 3.1 21:57:54 25° SE 22:00:09 50° ENE 22:04:24 10° N
SL-4 R/B 1.7 21:56:50 10° SW 22:00:53 66° SSE 22:04:38 10° ENE
NOSS 3-1 (C) 4.2 21:59:23 23° SE 22:00:57 26° ESE 22:05:50 10° ENE
FALCON 9 DEB 3.9 21:59:52 10° W 22:02:55 47° NNW 22:05:59 10° ENE
Cosmos 2219 Rocket 3.8 22:02:45 10° WSW 22:07:55 35° NW 22:13:07 10° NNE
Cosmos 1607 4.2 22:03:08 10° NW 22:09:24 56° WSW 22:12:53 26° S
Cosmos 2333 Rocket 4.0 22:04:38 10° WSW 22:09:42 31° NW 22:14:46 10° NNE
Cosmos 1703 3.3 22:08:43 36° S 22:10:13 71° E 22:14:11 10° NNE
Lacrosse 5 rocket 3.4 22:07:18 10° WNW 22:10:24 26° NNW 22:13:29 10° NE
Cosmos 1626 Rocket 4.0 22:12:18 31° SSE 22:14:04 48° E 22:18:20 10° NNE
Iridium 2 4.5 22:12:19 24° SW 22:14:13 45° W 22:17:50 10° N
USA 215 3.2 22:12:02 10° ENE 22:18:32 63° SE 22:24:59 10° SW
FALCON 9 DEB 4.4 22:15:38 10° W 22:18:35 39° N 22:21:31 10° ENE
Meteor 2-1 Rocket 4.3 22:13:40 10° NNW 22:19:11 71° W 22:22:14 27° S
Cosmos 2346 Rocket 4.4 22:16:23 25° S 22:20:10 86° E 22:26:24 10° N
Cosmos 1602 Rocket 4.2 22:20:35 29° SE 22:22:16 43° E 22:26:31 10° NNE
Terra 4.1 22:21:01 10° WSW 22:23:40 15° W 22:26:20 10° NW
COBE Rocket 3.9 22:22:10 30° S 22:24:41 77° WSW 22:29:36 10° NNW
SL-16 R/B 2.5 22:23:55 29° SSE 22:26:33 49° ESE 22:32:00 10° NE
FALCON 9 DEB 4.3 22:23:38 10° W 22:26:36 40° N 22:29:35 10° ENE
Cosmos 1455 3.5 22:25:06 10° NNW 22:28:28 30° W 22:29:59 22° SW
Cosmos 2237 Rocket 2.5 22:23:45 13° SW 22:28:42 66° WNW 22:34:19 10° NNE
FALCON 9 DEB 4.4 22:26:14 10° WNW 22:29:11 38° N 22:32:08 10° ENE
Cosmos 1464 Rocket 4.3 22:24:19 10° NNW 22:30:34 60° W 22:34:26 24° SSW
Cosmos 1184 Rocket 3.9 22:29:49 26° WSW 22:31:04 38° WNW 22:34:09 10° N
Cosmos-2242 4.2 22:27:19 10° N 22:31:24 35° ENE 22:33:34 22° ESE
Cosmos 1328 3.7 22:31:00 40° S 22:32:17 78° E 22:36:12 10° NNE
Cosmos 2369 Rocket 3.2 22:31:13 10° NNW 22:36:40 42° NE 22:41:40 12° ESE
Cosmos 1634 Rocket 4.3 22:33:25 10° N 22:39:42 60° ENE 22:43:33 24° SSE
GEOS 3 Rocket 4.0 22:38:08 30° S 22:40:35 52° SW 22:45:49 10° NW
ATLAS CENTAUR R/B 3.5 22:40:44 17° SW 22:45:02 77° SE 22:58:59 10° NE
USA 32 4.0 22:45:33 10° N 22:50:50 89° W 22:53:23 32° S
Aureole 3 3.6 22:47:29 10° N 22:51:20 67° E 22:53:19 32° SSE
Cosmos 1816 Rocket 4.5 22:47:51 26° SSW 22:51:27 79° W 22:57:37 10° N
NOSS 2-3 (D) 4.1 22:51:08 34° SSE 22:52:01 39° ESE 22:56:25 10° NE
USA 267 3.2 22:46:54 11° SE 22:53:11 81° SW 22:59:47 10° WNW
Cosmos 1812 Rocket 3.5 22:53:20 10° NNW 22:57:42 78° W 22:59:21 37° S
Cosmos 2278 Rocket 4.0 22:56:32 10° WNW 23:00:18 18° W 23:02:45 14° SW
BREEZE-M DEB (TANK) 3.3 22:57:16 10° W 23:01:03 83° N 23:13:17 10° E
Cosmos 2297 3.8 22:57:53 10° NNW 23:03:28 63° WSW 23:06:10 30° S
Thor Agena Rocket 3.6 23:02:01 10° NNE 23:07:17 72° ESE 23:09:46 32° S
SAR-Lupe-2 3.6 23:04:53 10° N 23:08:28 71° WNW 23:09:33 42° SW
NOSS 2-3 (C) 3.7 23:07:21 38° S 23:08:43 57° SE 23:13:28 10° NE
Resurs 1-4 Rocket 4.3 23:12:09 10° NE 23:14:54 14° E 23:17:38 10° ESE
SJ 16-02 1.7 23:11:49 10° NNW 23:16:04 50° WSW 23:17:28 35° SSW
FALCON 9 DEB 3.9 23:12:45 10° WNW 23:16:07 53° NNE 23:19:27 10° E
Cosmos 1174 4.5 23:14:18 22° SW 23:18:01 78° NW 23:22:35 10° NE
EP 2 4.5 23:19:35 63° SE 23:19:42 64° SE 23:22:44 10° NE
Meteor 1-11 4.4 23:19:57 27° SSW 23:23:03 67° WNW 23:28:39 10° N
Exosat Rocket 4.4 23:20:17 26° SSE 23:23:27 47° ESE 23:28:29 10° NE
GP-B 3.4 23:19:48 10° N 23:24:11 59° W 23:26:01 32° SSW
Meteor 1-27 4.2 23:18:48 10° NNW 23:24:22 77° W 23:27:14 30° S
Meteor 1-4 Rocket 4.3 23:23:25 10° NW 23:25:58 19° W 23:26:36 18° WSW
Cosmos 1943 Rocket 2.4 23:21:07 10° NW 23:26:27 52° WSW 23:28:53 30° S
In-Cosmos 22 Rocket 4.3 23:23:39 29° S 23:26:29 68° E 23:31:53 10° NNE
Cosmos 1825 Rocket 3.5 23:25:14 36° S 23:27:02 82° E 23:31:30 10° NNE
X-37B 2.9 23:33:13 14° ESE 23:33:13 14° ESE 23:33:46 10° ESE
Cosmos 1892 2.6 23:30:16 42° S 23:31:31 83° E 23:35:25 10° N
Cosmos 2142 Rocket 4.4 23:28:10 10° N 23:34:19 82° W 23:37:52 27° S
Cosmos 540 Rocket 4.4 23:32:30 24° SSE 23:34:46 35° ESE 23:39:23 10° NE
Helios 1A 4.0 23:32:32 19° SE 23:35:11 42° ENE 23:39:09 10° N
Cosmos 1437 Rocket 3.6 23:31:36 10° N 23:35:21 44° ENE 23:37:15 24° SE
Cosmos 1869 3.3 23:32:35 10° NNW 23:36:41 74° W 23:38:08 38° S
ALOS 2 4.4 23:35:17 17° WSW 23:36:45 20° W 23:39:59 10° NW
CZ-2D R/B 3.9 23:33:11 10° NE 23:37:00 20° E 23:40:22 12° SE
FALCON 9 DEB 4.5 23:36:03 10° WNW 23:39:01 37° N 23:41:59 10° ENE
Cosmos 1943 3.7 23:36:45 27° SSE 23:39:26 47° ESE 23:44:50 10° NE
Cosmos 990 Rocket 3.9 23:34:58 10° NNW 23:40:10 74° WSW 23:42:50 29° S
SL-4 R/B 2.4 23:36:42 10° W 23:40:32 57° N 23:44:07 10° ENE
Lacrosse 4 Rocket 3.2 23:37:22 10° NNW 23:40:59 29° NE 23:44:33 10° ESE
EO 1 Del DPAF 3.1 23:37:42 10° NNE 23:41:27 73° ESE 23:42:38 41° S
USA 229 DEB 3.6 23:38:45 24° SSW 23:42:53 79° SE 23:49:47 10° NE
USA 229 3.6 23:38:53 24° SSW 23:42:59 79° SE 23:49:53 10° NE
NOSS 8 (F) 4.2 23:43:55 43° WSW 23:44:46 74° NW 23:47:44 10° NE
Cosmos 841 Rocket 4.3 23:44:06 23° SSE 23:46:34 38° ESE 23:51:18 10° NE
DELTA 2 R/B (1) 4.5 23:47:09 27° SSE 23:47:12 27° SSE 23:51:47 10° ESE
Cosmos 1603 3.9 23:46:12 28° S 23:49:06 58° ESE 23:54:39 10° NE
Lacrosse 5 rocket 3.6 23:47:23 10° NW 23:50:20 23° N 23:53:18 10° ENE
NOSS 3-1 (C) 3.6 23:46:44 16° WSW 23:51:06 66° NW 23:57:36 10° NE
Cosmos 1953 Rocket 3.5 23:50:42 34° SSW 23:52:34 84° W 23:57:01 10° N
SL-16 R/B 3.5 23:46:57 10° SE 23:52:45 43° ENE 23:58:32 10° N
Cosmos 1242 Rocket 3.7 23:49:44 10° N 23:53:07 38° ENE 23:55:13 19° SE
Cosmos 1408 2.7 23:53:09 38° SW 23:54:21 64° WNW 23:58:03 10° N
FALCON 9 DEB 4.1 23:51:35 10° WNW 23:54:35 43° NNE 23:57:33 10° E
Cosmos 1825 2.2 23:54:28 38° S 23:55:48 74° E 23:59:34 10° NNE
